Location: Dzierzno
(50.6159°N, 19.2852°E)
Time: 21:55:50
(UTC+00:00)

Cosmos 2061 Rocket - Pass Details

Date: 18 November 2025
Orbit: 964 x 1013 km, 82.9° (Epoch: 05 December)

Event Time Altitude Azimuth Distance (km) Brightness Sun altitude
Rises 15:46:45 0° 182° (S) 3,691 7.3 -8.6°
Reaches altitude 10° 15:49:16 10° 181° (S) 2,739 6.6 -8.9°
Maximum altitude 15:55:32 77° 97° (E) 1,007 4.0 -9.9°
Drops below altitude 10° 16:01:46 10° 12° (NNE) 2,727 6.1 -10.8°
Sets 16:04:16 0° 11° (NNE) 3,673 6.7 -11.2°
